[[{"header":{"parameterUnit":"m.s-1","parameterCategory":1,"la1":30.2991,"la2":30.254,"lo1":-89.0895,"lo2":-89.0444,"dy":0.0017,"dx":0.0017,"nx":28,"ny":28,"refTime":"2025-06-06T21:00:00:Z","depth":0,"parameterNumber":2,"parameterNumberName":"U-component_of_WINDS"},"data":[0,0,0,0,0,0,0,0,0,0,0,0,0,0,0,0,0,0,0,0,0,0,0,0,0,0,0,0,0,0,0,0,0,0,0,0,0,0,0,0,0,0,0,0,0,0,0,0,0,0,0,0,0,0,0,0,0,0,1.7899,1.79,0,1.8003,1.8005,1.8006,1.8043,1.8043,1.8042,1.8042,1.8154,1.8157,1.816,0,0,0,0,0,0,0,0,0,0,0,0,0,1.7737,1.774,1.7899,1.79,1.7902,1.8003,1.8005,1.8006,1.8043,1.8043,1.8042,1.8042,1.8153,1.8157,1.8161,0,0,0,0,0,0,0,0,0,0,0,0,0,1.7821,1.7741,1.7899,1.7932,1.7936,1.8003,1.8005,1.8007,1.8043,1.8043,1.8042,1.8042,1.8151,1.8156,1.8161,1.8204,0,0,1.8177,1.8179,0,0,0,0,0,0,0,0,1.7816,1.7827,1.7926,1.793,1.7935,1.801,1.7989,1.8073,1.8044,1.8003,1.8042,1.8041,1.8107,1.8115,1.8136,1.8209,1.8214,1.8177,1.818,1.8182,1.8184,0,0,0,0,0,0,0,1.7811,1.7823,1.794,1.7927,1.7933,1.7944,1.7955,1.8005,1.8057,1.8006,1.8009,1.8021,1.8109,1.8131,1.8139,1.8216,1.8177,1.8181,1.8184,1.8186,1.8331,1.8331,0,0,0,0,0,0,1.7798,1.7818,1.7937,1.7944,1.7873,1.7947,1.796,1.7986,1.8056,1.8066,1.8021,1.8022,1.8123,1.8133,1.8143,1.8199,1.8182,1.8187,1.819,1.833,1.8331,1.8332,0,0,0,0,0,0,1.7795,1.7809,1.7933,1.7882,1.7898,1.7951,1.798,1.7989,1.8011,1.8068,1.8078,1.8034,1.8123,1.8136,1.8189,1.8203,1.8189,1.8194,1.8329,1.833,1.8331,1.8309,0,0,0,0,0,0,1.779,1.7807,1.7822,1.7881,1.7901,1.7975,1.7981,1.7991,1.8019,1.8021,1.8082,1.8092,1.8124,1.8181,1.8194,1.821,1.8198,1.8328,1.8329,1.8331,1.8309,1.8309,1.831,0,0,0,0,0,1.7784,1.7813,1.7823,1.7837,1.7921,1.7975,1.7986,1.8021,1.802,1.8037,1.8073,1.809,1.8199,1.8186,1.8201,1.8218,1.8327,1.8329,1.8331,1.8308,1.8309,1.831,0,0,0,0,0,0,1.7755,1.7821,1.7833,1.7881,1.7922,1.7981,1.8003,1.802,1.8063,1.8064,1.8106,1.812,1.8169,1.8199,1.8183,1.8264,1.8264,1.8269,1.8243,1.8244,1.8244,1.8236,1.8202,0,0,0,0,0,1.7754,1.7791,1.7847,1.7885,1.7905,1.795,1.7975,1.7998,1.8043,1.8061,1.8102,1.8146,1.8191,1.8219,1.8263,1.8313,1.8328,1.8333,1.8334,1.8334,1.8338,1.8368,1.8371,1.8338,1.8338,1.8338,0,0,1.7752,1.7793,1.7814,1.788,1.7914,1.7954,1.7965,1.8006,1.8036,1.8068,1.8119,1.8151,1.8203,1.8255,1.828,1.8282,1.835,1.8336,1.8336,1.834,1.837,1.8374,1.8376,1.8339,1.8339,1.8339,0,0,1.777,1.7804,1.7839,1.7873,1.7925,1.7956,1.7964,1.8021,1.8043,1.8095,1.812,1.8158,1.8233,1.827,1.8299,1.8332,1.8349,1.8345,1.8348,1.8377,1.838,1.8383,1.8395,1.8399,1.8349,1.8349,1.8349,0,1.7762,1.7821,1.7856,1.7895,1.7924,1.7954,1.7991,1.8023,1.8087,1.8108,1.8108,1.8204,1.8242,1.8303,1.8311,1.8333,1.8345,1.8338,1.8377,1.838,1.8383,1.8395,1.84,1.8348,1.8348,1.8348,1.8348,0,1.7809,1.785,1.7872,1.7932,1.7964,1.8002,1.8044,1.8073,1.8093,1.8124,1.8178,1.8224,1.8279,1.8295,1.8316,1.836,1.836,1.8368,1.8369,1.8384,1.8397,1.8402,1.8347,1.8347,1.8347,1.8347,0,0,1.781,1.7889,1.7897,1.7925,1.7985,1.8018,1.8059,1.8111,1.8135,1.8178,1.8215,1.8278,1.8287,1.8319,1.8345,1.837,1.8395,1.8376,1.8378,1.8378,1.8448,1.8441,1.8446,1.8407,1.8408,1.8409,1.8444,0,1.7836,1.7908,1.7941,1.7999,1.8038,1.8068,1.8104,1.8145,1.8176,1.8215,1.825,1.8294,1.8301,1.8321,1.8348,1.8386,1.8409,1.8384,1.8443,1.8444,1.8428,1.8452,1.8445,1.8476,1.8449,1.8449,1.845,0,1.7875,1.7918,1.7979,1.8035,1.8053,1.8084,1.8135,1.8172,1.8221,1.8241,1.8278,1.8303,1.8349,1.8347,1.8412,1.8394,1.842,1.8443,1.8445,1.8452,1.8448,1.846,1.8486,1.849,1.8458,1.8457,1.8457,0,1.787,1.7943,1.799,1.8013,1.808,1.8101,1.8131,1.8179,1.8208,1.8254,1.8274,1.8324,1.8352,1.8392,1.843,1.8425,1.8492,1.8493,1.8512,1.8511,1.8525,1.8523,1.8555,1.8541,1.8541,1.8541,1.8541,0,1.7896,1.7932,1.7989,1.8017,1.806,1.8099,1.8141,1.8173,1.8215,1.8252,1.8282,1.8316,1.8365,1.8406,1.8437,1.8487,1.8499,1.8518,1.8526,1.8516,1.8513,1.8533,1.8532,1.8542,1.8542,1.8542,1.8541,0,1.7897,1.7936,1.7989,1.8048,1.8064,1.8093,1.8145,1.8175,1.8207,1.8253,1.8267,1.8318,1.8368,1.8411,1.8477,1.8498,1.8549,1.8559,1.8532,1.8536,1.8553,1.8551,1.8599,1.8608,1.8587,1.8587,1.8588,0,1.7911,1.7939,1.8002,1.8028,1.8056,1.8098,1.8128,1.8169,1.8199,1.8258,1.8281,1.8333,1.8377,1.8455,1.85,1.8551,1.8562,1.8575,1.857,1.8559,1.8563,1.8561,1.8564,1.8576,1.8576,1.8576,1.8576,0,1.7931,1.7949,1.799,1.8039,1.8074,1.8115,1.8157,1.8177,1.8226,1.8259,1.8309,1.8343,1.841,1.8462,1.8518,1.8551,1.8572,1.8577,1.8584,1.8574,1.8557,1.8567,1.8533,1.8576,1.8576,1.8576,1.8576,1.8576,1.7939,1.7966,1.8015,1.8061,1.8096,1.8135,1.8166,1.8202,1.8245,1.8301,1.8324,1.8376,1.8426,1.8503,1.8536,1.8579,1.8582,1.8592,1.8595,1.8597,1.8595,1.855,1.8589,1.8589,1.8589,1.8589,1.8589,0,1.7961,1.7994,1.8035,1.8092,1.8129,1.8145,1.8192,1.8222,1.8267,1.8311,1.8354,1.8413,1.8463,1.8512,1.8566,1.859,1.8602,1.8603,1.8602,1.8609,1.8589,1.8578,1.8593,1.8593,1.8593,1.8593,1.8593,1.8593,1.7977,1.8024,1.8048,1.8114,1.8148,1.8198,1.8224,1.826,1.8296,1.836,1.8402,1.8433,1.8479,1.8537,1.8585,1.8598,1.8616,1.8615,1.8631,1.8612,1.8611,1.861,1.8599,1.8619,1.8619,1.8648,1.8648,1.8648]},{"header":{"parameterUnit":"m.s-1","parameterCategory":1,"la1":30.2991,"la2":30.254,"lo1":-89.0895,"lo2":-89.0444,"dy":0.0017,"dx":0.0017,"nx":28,"ny":28,"refTime":"2025-06-06T21:00:00:Z","depth":0,"parameterNumber":3,"parameterNumberName":"V-component_of_WINDS"},"data":[0,0,0,0,0,0,0,0,0,0,0,0,0,0,0,0,0,0,0,0,0,0,0,0,0,0,0,0,0,0,0,0,0,0,0,0,0,0,0,0,0,0,0,0,0,0,0,0,0,0,0,0,0,0,0,0,0,0,2.93,2.93,0,2.9325,2.9326,2.9326,2.9344,2.9344,2.9344,2.9344,2.9366,2.9367,2.9367,0,0,0,0,0,0,0,0,0,0,0,0,0,2.9262,2.9263,2.93,2.93,2.9301,2.9325,2.9326,2.9326,2.9344,2.9344,2.9344,2.9344,2.9366,2.9367,2.9367,0,0,0,0,0,0,0,0,0,0,0,0,0,2.9282,2.9263,2.93,2.9313,2.9314,2.9325,2.9326,2.9326,2.9344,2.9344,2.9344,2.9345,2.9366,2.9367,2.9367,2.9367,0,0,2.9369,2.937,0,0,0,0,0,0,0,0,2.9281,2.9283,2.9311,2.9312,2.9314,2.9332,2.932,2.9339,2.9344,2.9332,2.9344,2.9345,2.9354,2.9356,2.936,2.9368,2.9369,2.9369,2.937,2.937,2.937,0,0,0,0,0,0,0,2.9279,2.9282,2.931,2.9311,2.9313,2.9315,2.9318,2.9324,2.9342,2.9333,2.9335,2.9338,2.9355,2.9359,2.9361,2.9369,2.9369,2.937,2.937,2.9371,2.9373,2.9373,0,0,0,0,0,0,2.9277,2.9281,2.9309,2.9311,2.9297,2.9316,2.9319,2.9326,2.9342,2.9344,2.9338,2.9339,2.9358,2.936,2.9362,2.936,2.937,2.9371,2.9371,2.9374,2.9373,2.9373,0,0,0,0,0,0,2.9276,2.9279,2.9308,2.9296,2.93,2.9316,2.9323,2.9326,2.933,2.9345,2.9348,2.9339,2.9359,2.9361,2.9365,2.9361,2.9371,2.9372,2.9374,2.9373,2.9373,2.9357,0,0,0,0,0,0,2.9275,2.9279,2.928,2.9296,2.9301,2.9313,2.9323,2.9326,2.9332,2.9333,2.9347,2.9349,2.9359,2.9364,2.9365,2.9362,2.9372,2.9374,2.9374,2.9373,2.9358,2.9356,2.9355,0,0,0,0,0,2.9273,2.9275,2.928,2.9283,2.9303,2.9312,2.9315,2.9327,2.9332,2.9332,2.9341,2.9349,2.9361,2.9364,2.9366,2.9363,2.9375,2.9374,2.9373,2.9359,2.9357,2.9355,0,0,0,0,0,0,2.9257,2.9277,2.9283,2.9291,2.93,2.9316,2.9317,2.9324,2.9332,2.9333,2.9346,2.9349,2.9351,2.9357,2.936,2.9361,2.9369,2.9368,2.9357,2.9355,2.9353,2.9351,2.9373,0,0,0,0,0,2.9255,2.9262,2.9278,2.9283,2.9287,2.9301,2.9305,2.9314,2.9323,2.9327,2.9336,2.9344,2.9349,2.9352,2.9358,2.9359,2.9361,2.9357,2.9356,2.9354,2.9353,2.9351,2.9349,2.937,2.937,2.937,0,0,2.9249,2.9261,2.9265,2.928,2.9288,2.9293,2.9304,2.931,2.9313,2.9328,2.9332,2.9338,2.9348,2.9349,2.935,2.9355,2.9348,2.9353,2.9352,2.9352,2.935,2.9348,2.9347,2.937,2.937,2.937,0,0,2.9242,2.9253,2.9256,2.9264,2.9276,2.9284,2.9285,2.9299,2.9304,2.9309,2.9319,2.9322,2.9331,2.9337,2.9341,2.9332,2.9338,2.9333,2.9324,2.9321,2.932,2.9318,2.9313,2.9311,2.9332,2.9332,2.9332,0,2.9234,2.9244,2.9257,2.9262,2.9267,2.928,2.9282,2.9288,2.9301,2.9303,2.9308,2.9318,2.9325,2.9327,2.9324,2.9328,2.9327,2.9332,2.9319,2.9318,2.9317,2.9312,2.931,2.9331,2.9331,2.9332,2.9332,0,2.9232,2.9238,2.9239,2.9251,2.9256,2.926,2.9271,2.9274,2.9281,2.9288,2.9291,2.93,2.9306,2.9307,2.9314,2.9309,2.9311,2.9317,2.9325,2.9314,2.9309,2.9307,2.933,2.933,2.9331,2.9331,0,0,2.9217,2.9235,2.9235,2.9239,2.9252,2.9256,2.9258,2.9265,2.9267,2.9274,2.9275,2.9281,2.9286,2.9291,2.9298,2.9296,2.9285,2.9302,2.9302,2.9297,2.9277,2.9271,2.9269,2.9289,2.9289,2.9289,2.9275,0,2.9211,2.9218,2.9228,2.9231,2.9235,2.9246,2.9247,2.9254,2.926,2.9263,2.9269,2.9272,2.928,2.9282,2.9281,2.9287,2.9281,2.9288,2.9288,2.9288,2.9285,2.9267,2.9262,2.9249,2.9274,2.9274,2.9274,0,2.9206,2.9213,2.9216,2.9225,2.9227,2.9229,2.9234,2.9238,2.9244,2.9248,2.9251,2.9259,2.9259,2.9266,2.9265,2.9269,2.927,2.9272,2.9272,2.9272,2.928,2.9266,2.9246,2.9243,2.9271,2.9271,2.9272,0,2.9193,2.9203,2.9205,2.9209,2.922,2.9221,2.9225,2.9232,2.9234,2.9238,2.9239,2.9243,2.9245,2.9246,2.9253,2.9258,2.925,2.9259,2.9252,2.9252,2.925,2.925,2.9229,2.9252,2.9252,2.9252,2.9252,0,2.9185,2.9186,2.9199,2.9201,2.9201,2.9211,2.921,2.9215,2.922,2.9221,2.923,2.923,2.924,2.924,2.9245,2.9242,2.9243,2.9245,2.9246,2.9244,2.9243,2.9244,2.9245,2.9251,2.9251,2.9251,2.9251,0,2.9172,2.9181,2.9184,2.9194,2.9196,2.9195,2.9203,2.9203,2.9208,2.9209,2.9209,2.9218,2.9218,2.9225,2.9227,2.923,2.9224,2.9228,2.9223,2.9223,2.9216,2.9216,2.9194,2.919,2.9216,2.9216,2.9216,0,2.9166,2.9167,2.9176,2.9178,2.9182,2.9184,2.9186,2.9195,2.9196,2.9201,2.92,2.9202,2.9203,2.9203,2.9208,2.9208,2.9211,2.9203,2.9211,2.9208,2.9209,2.9208,2.9207,2.9201,2.9201,2.9201,2.92,0,2.9154,2.9158,2.9162,2.9165,2.9167,2.9171,2.9175,2.9175,2.9184,2.9184,2.9185,2.9186,2.9187,2.9187,2.9188,2.9191,2.9196,2.9198,2.9196,2.9193,2.9189,2.919,2.9217,2.9198,2.9198,2.9199,2.9199,2.9199,2.9144,2.9144,2.915,2.9152,2.9156,2.9158,2.9158,2.9163,2.9164,2.9166,2.917,2.9169,2.9172,2.9174,2.9175,2.9173,2.9177,2.9175,2.9174,2.9173,2.9171,2.919,2.9173,2.9174,2.9174,2.9174,2.9174,0,2.9131,2.9135,2.9137,2.9141,2.9142,2.9148,2.9151,2.9151,2.915,2.9153,2.9153,2.9152,2.9152,2.9155,2.9154,2.9152,2.9154,2.9151,2.9151,2.9151,2.9169,2.917,2.9149,2.9149,2.9149,2.9149,2.9149,2.9149,2.9125,2.9125,2.9128,2.9128,2.9131,2.9131,2.9132,2.9133,2.9135,2.9133,2.9133,2.9135,2.9137,2.9136,2.9134,2.9135,2.9134,2.913,2.9131,2.9148,2.915,2.9152,2.9153,2.913,2.913,2.9113,2.9113,2.9113]}]]